INTELSAT 26 (IS-26) 1 24732U 97007A 21110.92211848 .00000009 00000-0 00000-0 0 9990 2 24732 9.4736 41.1815 0008187 3.7135 199.9148 1.00271480 53857 GALAXY 25 (G-25) 1 24812U 97026A 21111.50266601 .00000156 00000-0 00000-0 0 9995 2 24812 2.6594 87.6752 0004846 343.6470 352.2749 1.00271665 87497 INTELSAT 5 (IS-5) 1 24916U 97046A 21111.58706634 .00000093 00000-0 00000-0 0 9995 2 24916 6.3440 63.7723 0004133 341.1790 239.2607 1.00272594 86749 GALAXY 11 (G-11) 1 26038U 99071A 21111.62108251 -.00000162 00000-0 00000+0 0 9995 2 26038 1.9448 93.3265 0000860 162.2856 84.7942 1.00271440 78209 INTELSAT 9 (IS-9) 1 26451U 00043A 21111.77324787 -.00000284 00000-0 00000+0 0 9990 2 26451 6.3307 63.9547 0003221 335.8294 38.6659 1.00272179 75979 INTELSAT 12 (IS-12) 1 26590U 00068A 21111.50894699 .00000014 00000-0 00000-0 0 9997 2 26590 3.6575 83.4810 0006705 340.7095 33.0882 1.00273483 32838 INTELSAT 1R (IS-1R) 1 26608U 00072A 21111.52726653 -.00000136 00000-0 00000-0 0 9994 2 26608 3.4516 83.5832 0000543 192.5843 280.5581 1.00271463 22441 INTELSAT 10 (IS-10) 1 26766U 01019A 21111.44666057 -.00000357 00000-0 00000-0 0 9998 2 26766 4.5935 76.7439 0005180 327.7930 77.9608 1.00628699 26743 INTELSAT 901 (IS-901) 1 26824U 01024A 21111.41883233 -.00000203 00000-0 00000-0 0 9993 2 26824 0.0456 69.4580 0000994 307.2579 316.2670 1.00270764 4091 INTELSAT 902 (IS-902) 1 26900U 01039A 21111.77324787 -.00000282 00000-0 00000+0 0 9993 2 26900 1.3621 93.4417 0003366 315.6618 29.2270 1.00272273 71899 INTELSAT 904 (IS-904) 1 27380U 02007A 21111.41839615 -.00000212 00000-0 00000-0 0 9998 2 27380 2.1965 90.2342 0003390 301.3560 299.2524 1.00271922 32886 DIRECTV 5 (TEMPO 1) 1 27426U 02023A 21111.60624209 -.00000057 00000-0 00000+0 0 9995 2 27426 0.0789 94.2374 0003281 291.8758 291.9104 1.00272065 69420 INTELSAT 905 (IS-905) 1 27438U 02027A 21111.70657370 -.00000184 00000-0 00000+0 0 9999 2 27438 2.0184 91.0420 0002826 298.8040 50.0243 1.00270769 69096 GALAXY 3C (G-3C) 1 27445U 02030A 21111.49609060 -.00000151 00000-0 00000-0 0 9995 2 27445 0.0197 288.1954 0001816 38.9651 326.1552 1.00269769 27627 INTELSAT 906 (IS-906) 1 27513U 02041A 21111.77899883 .00000015 00000-0 00000+0 0 9995 2 27513 1.0275 95.2934 0003311 303.1675 156.1753 1.00271702 68091 GALAXY 12 (G-12) 1 27715U 03013B 21111.68572432 .00000059 00000-0 00000+0 0 9995 2 27715 2.2322 89.7073 0002001 297.9869 300.1424 1.00271217 66133 GALAXY 23 (G-23) 1 27854U 03034A 21111.59871634 .00000013 00000-0 00000-0 0 9999 2 27854 0.0199 245.8243 0002895 147.1321 271.4717 1.00271639 64860 GALAXY 13 (HORIZONS 1) 1 27954U 03044A 21111.68616050 .00000047 00000-0 00000+0 0 9996 2 27954 0.0158 261.1570 0002629 302.3400 126.4649 1.00271268 64274 INTELSAT 10-02 1 28358U 04022A 21111.35235858 -.00000011 00000-0 00000-0 0 9992 2 28358 0.0486 80.1362 0001222 302.8359 312.5198 1.00271719 61715 XM-3 (RHYTHM) 1 28626U 05008A 21111.54146541 -.00000206 00000-0 00000+0 0 9991 2 28626 0.0112 250.4689 0002407 190.1251 239.0156 1.00273661 59181 DIRECTV 8 1 28659U 05019A 21111.60060718 .00000000 00000-0 00000+0 0 9998 2 28659 0.0033 124.3233 0003019 277.6815 265.0518 1.00272331 58307 GALAXY 28 (G-28) 1 28702U 05022A 21111.54701976 -.00000186 00000-0 00000+0 0 9998 2 28702 0.0194 137.7634 0002831 227.1722 312.8095 1.00269779 57947 GALAXY 14 (G-14) 1 28790U 05030A 21111.53591105 -.00000284 00000-0 00000+0 0 9993 2 28790 0.2137 93.5343 0003668 272.8183 330.5320 1.00522167 57420 GALAXY 15 (G-15) 1 28884U 05041A 21111.68493920 .00000078 00000-0 00000+0 0 9991 2 28884 0.0079 235.2164 0002081 169.9196 278.4124 1.00273120 56749 SPACEWAY 2 1 28903U 05046B 21111.68371789 .00000104 00000-0 00000+0 0 9996 2 28903 0.9192 91.8946 0000317 246.2087 339.1076 1.00271429 56615 GALAXY 16 (G-16) 1 29236U 06023A 21111.48028389 -.00000127 00000-0 00000-0 0 9992 2 29236 0.0244 271.4977 0002939 128.4549 243.7110 1.00270600 54099 DIRECTV 9S 1 29494U 06043A 21111.61707984 -.00000114 00000-0 00000-0 0 9996 2 29494 0.0130 206.2234 0003004 179.9287 304.7027 1.00272002 32500 XM-4 (BLUES) 1 29520U 06049A 21111.31784459 -.00000023 00000-0 00000-0 0 9990 2 29520 0.0107 225.4776 0000323 162.0950 181.2390 1.00270235 32595 GALAXY 17 (G-17) 1 31307U 07016B 21111.49044046 -.00000175 00000-0 00000-0 0 9999 2 31307 0.0518 81.2509 0003181 307.7728 266.3109 1.00270700 50933 DIRECTV 10 1 31862U 07032A 21111.61474407 -.00000103 00000-0 00000+0 0 9995 2 31862 0.0135 88.9456 0000292 8.3586 231.1025 1.00268861 50522 SPACEWAY 3 1 32018U 07036A 21111.48762990 -.00000152 00000-0 00000-0 0 9990 2 32018 0.0033 76.3236 0000241 231.7432 342.3013 1.00270791 27673 INTELSAT 11 (IS-11) 1 32253U 07044B 21111.41577906 -.00000269 00000-0 00000-0 0 9993 2 32253 0.0153 255.2571 0001939 142.7781 278.3700 1.00270709 49629 HORIZONS 2 1 32388U 07063B 21111.77063111 -.00000183 00000-0 00000+0 0 9994 2 32388 0.0131 250.6203 0002800 129.8360 191.8647 1.00271915 49003 DIRECTV 11 1 32729U 08013A 21111.48028369 -.00000126 00000-0 00000-0 0 9991 2 32729 0.0044 81.8901 0000201 249.7165 311.8776 1.00271791 26714 GALAXY 18 (G-18) 1 32951U 08024A 21111.68694562 .00000025 00000-0 00000+0 0 9992 2 32951 0.0146 207.1198 0003125 179.6160 307.5281 1.00269822 47201 INTELSAT 25 (IS-25) 1 33153U 08034A 21111.41804720 -.00000224 00000-0 00000-0 0 9991 2 33153 0.0089 204.6462 0002982 182.2427 301.8104 1.00270360 46810 GALAXY 19 (G-19) 1 33376U 08045A 21111.48569377 -.00000140 00000-0 00000-0 0 9990 2 33376 0.0134 265.3674 0003247 129.3986 252.8522 1.00276950 46027 FM-5 1 35493U 09034A 21111.47893785 -.00000200 00000-0 00000-0 0 9990 2 35493 0.0250 293.3450 0000923 74.3343 288.3601 1.00270106 27775 INTELSAT 14 (IS-14) 1 36097U 09064A 21111.41534288 -.00000274 00000-0 00000-0 0 9999 2 36097 0.0174 198.1162 0002666 202.0556 274.0593 1.00269610 41737 INTELSAT 15 (IS-15) 1 36106U 09067A 21111.70118716 -.00000186 00000-0 00000+0 0 9990 2 36106 0.0162 285.0698 0002290 108.9858 153.5013 1.00270038 41720 DIRECTV 12 1 36131U 09075A 21111.61474385 -.00000105 00000-0 00000+0 0 9995 2 36131 0.0138 189.2197 0000240 200.6535 298.6276 1.00273321 41501 INTELSAT 16 (IS-16) 1 36397U 10006A 21111.48085705 -.00000245 00000-0 00000-0 0 9990 2 36397 0.0125 275.7907 0001912 126.3781 264.5126 1.00271857 40849 XM-5 1 37185U 10053A 21111.49427241 -.00000205 00000-0 00000-0 0 9990 2 37185 0.0156 227.5121 0005175 4.6656 70.3784 1.00270582 38604 INTELSAT 17 (IS-17) 1 37238U 10065B 21111.59033859 -.00000003 00000-0 00000-0 0 9997 2 37238 0.0179 177.7498 0002942 236.5675 74.0608 1.00271845 34488 INTELSAT NEW DAWN 1 37392U 11016A 21111.50266601 .00000155 00000-0 00000-0 0 9996 2 37392 0.0148 186.1306 0000658 219.4977 17.9433 1.00271777 34413 INTELSAT 18 (IS-18) 1 37834U 11056A 21111.57471919 .00000052 00000-0 00000-0 0 9994 2 37834 0.0259 346.5044 0001913 45.2336 205.0217 1.00271741 34935 INTELSAT 22 (IS-22) 1 38098U 12011A 21111.51051725 -.00000059 00000-0 00000-0 0 9990 2 38098 0.0177 263.6681 0002588 133.2300 68.7612 1.00270027 32949 INTELSAT 19 (IS-19) 1 38356U 12030A 21111.62622459 -.00000057 00000-0 00000-0 0 9996 2 38356 0.0150 258.4130 0003139 135.4205 207.5227 1.00272798 31568 INTELSAT 20 (IS-20) 1 38740U 12043A 21111.50973212 -.00000025 00000-0 00000-0 0 9995 2 38740 0.0122 179.0174 0001027 14.0069 268.7656 1.00270496 31876 INTELSAT 21 (IS-21) 1 38749U 12045A 21111.53591105 -.00000285 00000-0 00000-0 0 9994 2 38749 0.0169 191.4828 0002574 223.4150 289.8567 1.00269025 31652 INTELSAT 23 (IS-23) 1 38867U 12057A 21111.53591105 -.00000285 00000-0 00000-0 0 9998 2 38867 0.0086 195.4688 0001836 181.6866 332.5992 1.00274109 31071 FM-6 1 39360U 13058A 21111.60251133 -.00000017 00000-0 00000-0 0 9994 2 39360 0.0285 268.9185 0000460 344.9428 56.7521 1.00270011 27187 INTELSAT 30 (IS-30) 1 40271U 14062A 21111.49608983 -.00000151 00000-0 00000-0 0 9998 2 40271 0.0189 252.0928 0001164 240.5451 160.6758 1.00269721 23719 DIRECTV 14 1 40333U 14078B 21111.48028360 -.00000126 00000-0 00000-0 0 9990 2 40333 0.0127 177.2357 0000442 130.1553 336.0517 1.00270721 23173 DIRECTV 15 1 40663U 15026A 21111.61474407 -.00000103 00000-0 00000-0 0 9997 2 40663 0.0380 78.3362 0000531 101.2251 148.7798 1.00269081 21589 SKY MEXICO-1 1 40664U 15026B 21111.43488355 -.00000235 00000-0 00000-0 0 9991 2 40664 0.0159 277.6530 0002737 133.4108 236.4440 1.00271791 21606 INTELSAT 34 (IS-34) 1 40874U 15039A 21111.53591105 -.00000286 00000-0 00000-0 0 9993 2 40874 0.0188 253.6731 0000724 346.6956 106.8972 1.00269879 20750 INTELSAT 31 (IS-31) 1 41581U 16035A 21111.49608984 -.00000151 00000-0 00000+0 0 9995 2 41581 0.0187 245.8472 0002521 337.2484 70.2208 1.00269491 17818 INTELSAT 36 (IS-36) 1 41747U 16053A 21111.50973212 -.00000025 00000-0 00000-0 0 9991 2 41747 0.0300 304.3594 0001577 49.0713 108.3609 1.00269802 17092 INTELSAT 33E (IS-33E) 1 41748U 16053B 21111.50807464 .00000048 00000-0 00000-0 0 9991 2 41748 0.0304 347.8478 0001696 37.5398 67.3212 1.00270356 17374 INTELSAT 32E (IS-32E) 1 41945U 17007B 21111.48748698 -.00000270 00000-0 00000-0 0 9998 2 41945 0.0141 211.0348 0000491 96.5397 34.5105 1.00266640 15350 INTELSAT 35E (IS-35E) 1 42818U 17041A 21111.77630112 -.00000239 00000-0 00000+0 0 9993 2 42818 0.0131 207.6077 0002000 182.2855 65.1326 1.00274043 13965 INTELSAT 37E (IS-37E) 1 42950U 17059A 21111.42075153 -.00000141 00000-0 00000-0 0 9992 2 42950 0.0232 248.4275 0002294 162.4289 292.3267 1.00270747 13171 AZERSPACE 2 (IS-38) 1 43632U 18074A 21111.50510861 .00000136 00000-0 00000-0 0 9990 2 43632 0.0178 233.7846 0001346 145.3490 57.6164 1.00270156 9605 HORIZONS 3E 1 43633U 18074B 21111.64535091 -.00000032 00000-0 00000+0 0 9993 2 43633 0.0288 62.5838 0000900 239.0319 309.6375 1.00269647 9442 AT&T T-16 1 44333U 19034A 21111.61707972 -.00000115 00000-0 00000-0 0 9997 2 44333 0.0124 266.4451 0001094 321.1678 103.5718 1.00269262 6768 INTELSAT 39 (IS-39) 1 44476U 19049B 21111.72375917 .00000032 00000-0 00000+0 0 9999 2 44476 0.0172 255.6085 0000631 319.8441 317.0483 1.00271555 6275 GALAXY 30 1 46114U 20056C 21111.63334178 .00000036 00000-0 00000-0 0 9999 2 46114 0.0261 112.1989 0001997 273.7687 286.9674 1.00272726 2511